{"data":{"norad_id":65869,"epoch":"2026-09-20T23:05:45.663648Z","epoch_age_seconds":66128,"freshness":"FRESH","line1":"1 65869U 25223R   26263.96233407  .00018591  00000+0  55984-3 0  9998","line2":"2 65869  53.1597 103.5471 0000839  84.7514 275.3584 15.34408874 54159","mean_motion":15.34408874,"eccentricity":8.39e-5,"inclination_deg":53.1597,"raan_deg":103.5471,"arg_perigee_deg":84.7514,"mean_anomaly_deg":275.3584,"bstar":0.00055984,"rev_number":5415,"period_min":93.847215328344,"perigee_km":462.10292065284,"apogee_km":463.25080921938,"semimajor_km":6840.8138649361,"source":"CELESTRAK","updated_at":"2026-09-21T09:00:35.751687Z"}}